OKEAN-3 (21397 NORAD) Tracking and Keplerian Element Data

This shows tracking and keplerian element data for the satellite.

Feedback or suggestion? Click here.




ElementValue
Catalog21397
NameOKEAN-3
Epoch Orbit44730
Epoch Day195.90648439
Epoch Year2018
RAAN125.3208
Inclination82.523
Eccentricity0.0018208
Argument of Perigee9.0781
Mean Anonmoly351.0764
Mean Motion14.92685989
Decay Rate2.05E-06
L11 21397U 91039A 18195.90648439 .00000205 00000-0 17276-4 0 9995
L22 21397 82.5230 125.3208 0018208 9.0781 351.0764 14.92685989447304

Live tracking and technical data element details for OKEAN-3 (NORAD 21397). OKEAN-3 can be tracked NOW for your location showing map with azimuth and elevation plus other details from your city location.

Track the satellite on the map from your city or location and see movement details for azimuth, elevation, latitude, longitude, range, height, and movement on the map or in text.







IsCatalogInMostPopularTable: catalog: 21397, numindb: 19
Update: records affected: 1



GetName: 21397 OKEAN-3

Hit Count: updated at: Sun, 15 Jul 2018 23:07:37 GMT